Main page
METAR-TAF:

METAR-TAF

Airports :

RNAS Yeovilton (HMS Heron)

Yeovilton, England

latitude: 51-00N, longitude: 002-38W, elevation: 23 m

Current weather observation

The report was made 28 minutes ago, at 22:50 UTC
Wind 3 kt from the East/Southeast
Temperature 14°C
Humidity 72%
Pressure 1000 hPa
Visibility 10 km or more

METAR: EGDY 222250Z AUTO 12003KT 9999 OVC100/// 14/09 Q1000

Time: 00:18 (23:18 UTC)


TAF: missing

Weather observations and forecasts of more than 4000 airports (METAR and TAF reports).

The available stations are represented by yellow and red dots on the map.

Hover mouse over dot to see the name of the station.

Then click to see weather observations and forecasts.

To change the map : click on the green buttons with a black cross to zoom in, on the green button with a dash to zoom out, or on the green arrows for adjacent maps.


METAR-TAF: